Voltar ao catálogo

LES 9

AtivoMilitarGEO
NORAD 8747·PAYLOAD·🇺🇸 United States

Lançado Mar 15, 1976 de Cape Canaveral Space Force Station

Loading…

TLE

AtualizadoSource: Space-Track

Época: Sep 14, 2026, 10:33 UTC

1 08747U 76023B   26257.43999645 -.00000124  00000-0  00000-0 0  9993
2 08747  22.5144  35.8977 0024153 184.8564 187.5475  1.00270050130574

Acompanhe LES 9 em tempo real com AllMySat

Download on the App Store